{"data":{"norad_id":54655,"intl_designator":"2022-166P","name":"ONEWEB-0589","alt_names":[],"object_type":"PAYLOAD","status":"ACTIVE","operator":null,"country":"UK","launch_date":"2022-12-08","launch_site_code":"AFETR","launch_vehicle":null,"mission":null,"orbit_class":"UNKNOWN","rcs_meters":null,"size_class":null,"mass_kg":null,"dimensions":null,"purposes":["comms"],"wikipedia_slug":null,"has_3d_model":false,"image_url":null,"decayed_at":null,"tle_current":{"epoch":"2026-09-20T04:41:59.227296Z","epoch_age_seconds":48332,"freshness":"FRESH","line1":"1 54655U 22166P   26263.19582439 -.00000018  00000+0 -75395-4 0  9995","line2":"2 54655  87.9281 225.0665 0002748  92.8977 267.2471 13.21826424184095","mean_motion":13.21826424,"eccentricity":0.0002748,"inclination_deg":87.9281,"raan_deg":225.0665,"arg_perigee_deg":92.8977,"mean_anomaly_deg":267.2471,"bstar":-7.5395e-5,"rev_number":18409,"period_min":108.94017352463,"perigee_km":1175.6753943452,"apogee_km":1179.8281108036,"semimajor_km":7555.8887525744,"source":"CELESTRAK","updated_at":"2026-09-20T09:00:44.743717Z"}}}